Location: Godiavel Galaoual
(15.2485°N, 12.6604°W)
Time: 00:13:23
(UTC+00:00)

Explorer 7 - Pass Details

Date: 14 June 2021
Orbit: 484 x 676 km, 50.3° (Epoch: 29 July)

Event Time Altitude Azimuth Distance (km) Brightness Sun altitude
Rises 21:42:06 0° 226° (SW) 2,987 10.6 -29.8°
Enters shadow 21:43:14 - 227° (SW) 2,548 10.3 -30.0°
Reaches altitude 10° 21:44:27 10° 229° (SW) 2,088 - -30.3°
Maximum altitude 21:49:14 62° 309° (NW) 758 - -31.2°
Drops below altitude 10° 21:54:03 10° 30° (NNE) 2,094 - -32.0°
Sets 21:56:26 0° 34° (NE) 2,996 - -32.5°
